, WY

(GMT )
South Pass

Weather History for KFWZ - May, 2013

Change the Weather History Date:

Tuesday, May 28, 2013

  Actual Average Record
Temperature  
Mean Temperature 44 °F -  
Max Temperature 51 °F - - ()
Min Temperature 37 °F - - ()
Degree Days  
Heating Degree Days 21    
Moisture  
Dew Point 34 °F    
Average Humidity 72    
Maximum Humidity 100    
Minimum Humidity 39    
Precipitation  
Precipitation 0.07 in - - ()
Sea Level Pressure  
Sea Level Pressure 29.81 in    
Wind  
Wind Speed 12 mph (WSW)    
Max Wind Speed 21 mph    
Max Gust Speed 31 mph    
Visibility 10 miles    
Events Rain , Thunderstorm    
Averages and records for this station are not official NWS values.
T = Trace of Precipitation, MM = Missing Value Source: NWS Daily Summary

Daily Weather History Graph

Daily Weather History Graph

Search for Another Location

Airport or City:

Astronomy

May. 28, 2013 Rise Set
Actual Time 5:42 AM MDT 8:42 PM MDT
Civil Twilight 5:08 AM MDT 9:16 PM MDT
Nautical Twilight 4:25 AM MDT 9:59 PM MDT
Astronomical Twilight 3:35 AM MDT 10:50 PM MDT
Moon No Moon Rise 9:36 AM MDT (5/28)
Length of Visible Light 16h 08m
Length of Day
15h 00m
Waning Gibbous, 82% of the Moon is Illuminated
May 28
Waning Gibbous
May 31
Last Quarter
Jun 8
New
Jun 16
First Quarter
Jun 23
Full

Hourly Weather History & Observations

Time (MDT) Temp. Windchill Dew Point Humidity Pressure Visibility Wind Dir Wind Speed Gust Speed Precip Events Conditions
12:15 AM 44.6 °F 40.7 °F 21.2 °F 39% 29.92 in 10.0 mi West 6.9 mph - N/A   Clear
12:35 AM 44.6 °F 39.7 °F 21.2 °F 39% 29.91 in 10.0 mi West 9.2 mph - N/A   Clear
12:55 AM 44.6 °F 38.4 °F 23.0 °F 43% 29.92 in 10.0 mi West 12.7 mph 18.4 mph N/A   Scattered Clouds
1:15 AM 44.6 °F 37.8 °F 26.6 °F 49% 29.89 in 10.0 mi WNW 15.0 mph 20.7 mph N/A   Mostly Cloudy
1:35 AM 44.6 °F 38.1 °F 26.6 °F 49% 29.86 in 10.0 mi WNW 13.8 mph - N/A   Mostly Cloudy
1:55 AM 44.6 °F 38.4 °F 26.6 °F 49% 29.86 in 10.0 mi West 12.7 mph 25.3 mph N/A   Clear
2:15 AM 44.6 °F 37.8 °F 26.6 °F 49% 29.86 in 10.0 mi WNW 15.0 mph 24.2 mph N/A   Clear
2:35 AM 44.6 °F 38.4 °F 24.8 °F 46% 29.87 in 10.0 mi West 12.7 mph 26.5 mph N/A   Clear
2:55 AM 44.6 °F 40.2 °F 28.4 °F 53% 29.87 in 10.0 mi WNW 8.1 mph 23.0 mph N/A   Scattered Clouds
3:15 AM 44.6 °F 38.1 °F 30.2 °F 57% 29.86 in 10.0 mi West 13.8 mph 18.4 mph N/A   Scattered Clouds
3:35 AM 44.6 °F 36.6 °F 28.4 °F 53% 29.86 in 10.0 mi West 19.6 mph 26.5 mph N/A   Mostly Cloudy
3:55 AM 44.6 °F 36.4 °F 28.4 °F 53% 29.85 in 10.0 mi West 20.7 mph 27.6 mph N/A   Overcast
4:15 AM 44.6 °F 37.4 °F 30.2 °F 57% 29.85 in 10.0 mi West 16.1 mph 25.3 mph N/A   Overcast
4:35 AM 44.6 °F 37.2 °F 30.2 °F 57% 29.86 in 10.0 mi West 17.3 mph 23.0 mph N/A   Overcast
4:55 AM 44.6 °F 37.8 °F 30.2 °F 57% 29.85 in 10.0 mi West 15.0 mph 25.3 mph N/A   Overcast
5:15 AM 44.6 °F 37.2 °F 30.2 °F 57% 29.84 in 10.0 mi West 17.3 mph 28.8 mph N/A   Overcast
5:35 AM 41.0 °F 32.2 °F 33.8 °F 76% 29.84 in 10.0 mi West 18.4 mph 28.8 mph N/A   Overcast
5:55 AM 39.2 °F 30.8 °F 33.8 °F 81% 29.84 in 10.0 mi West 15.0 mph 21.9 mph N/A   Overcast
6:15 AM 41.0 °F 33.9 °F 33.8 °F 76% 29.84 in 10.0 mi West 12.7 mph 21.9 mph N/A   Overcast
6:35 AM 39.2 °F 30.2 °F 35.6 °F 87% 29.84 in 5.0 mi West 17.3 mph 24.2 mph N/A Rain Light Rain
6:55 AM 37.4 °F 28.9 °F 35.6 °F 93% 29.83 in 5.0 mi West 13.8 mph 24.2 mph N/A   Light Drizzle
7:15 AM 39.2 °F 31.6 °F 35.6 °F 87% 29.83 in 10.0 mi WSW 12.7 mph 18.4 mph N/A   Overcast
7:35 AM 41.0 °F 33.5 °F 35.6 °F 81% 29.83 in 10.0 mi WSW 13.8 mph 18.4 mph N/A   Overcast
7:55 AM 41.0 °F 33.1 °F 35.6 °F 81% 29.83 in 7.0 mi West 15.0 mph 23.0 mph N/A Rain Light Rain
8:15 AM 41.0 °F 33.9 °F 35.6 °F 81% 29.83 in 10.0 mi WSW 12.7 mph 23.0 mph N/A   Overcast
8:35 AM 41.0 °F 33.5 °F 37.4 °F 87% 29.83 in 7.0 mi WSW 13.8 mph 18.4 mph N/A   Light Drizzle
8:55 AM 41.0 °F 33.9 °F 35.6 °F 81% 29.83 in 10.0 mi WSW 12.7 mph - N/A   Overcast
9:15 AM 41.0 °F 33.9 °F 35.6 °F 81% 29.83 in 10.0 mi WSW 12.7 mph - N/A   Overcast
9:35 AM 42.8 °F 36.6 °F 35.6 °F 76% 29.82 in 10.0 mi WSW 11.5 mph - N/A   Overcast
9:55 AM 44.6 °F 40.7 °F 33.8 °F 66% 29.82 in 10.0 mi SW 6.9 mph - N/A   Overcast
10:15 AM 44.6 °F 39.2 °F 32.0 °F 61% 29.82 in 10.0 mi SSW 10.4 mph 20.7 mph N/A   Overcast
10:35 AM 44.6 °F 40.2 °F 32.0 °F 61% 29.81 in 10.0 mi SSW 8.1 mph 20.7 mph N/A   Mostly Cloudy
10:55 AM 46.4 °F 41.9 °F 33.8 °F 62% 29.81 in 10.0 mi SSW 9.2 mph 20.7 mph N/A   Overcast
11:15 AM 46.4 °F 41.9 °F 33.8 °F 62% 29.79 in 10.0 mi South 9.2 mph 16.1 mph N/A   Overcast
11:35 AM 50.0 °F - 33.8 °F 54% 29.79 in 10.0 mi SSE 11.5 mph 18.4 mph N/A   Scattered Clouds
11:55 AM 51.8 °F - 33.8 °F 50% 29.79 in 10.0 mi SSW 6.9 mph 17.3 mph N/A   Scattered Clouds
12:15 PM 51.8 °F - 32.0 °F 47% 29.79 in 10.0 mi SSW 10.4 mph 21.9 mph N/A   Scattered Clouds
12:35 PM 51.8 °F - 32.0 °F 47% 29.78 in 10.0 mi SSW 8.1 mph 20.7 mph N/A   Mostly Cloudy
12:55 PM 50.0 °F - 32.0 °F 50% 29.77 in 10.0 mi WSW 10.4 mph - N/A   Overcast
1:15 PM 44.6 °F 37.2 °F 37.4 °F 76% 29.78 in 7.0 mi South 17.3 mph 29.9 mph N/A Rain , Thunderstorm Light Thunderstorms and Rain
1:35 PM 44.6 °F 43.1 °F 37.4 °F 76% 29.77 in 10.0 mi SSW 3.5 mph - N/A Thunderstorm Overcast
1:55 PM 42.8 °F 35.8 °F 37.4 °F 81% 29.79 in 4.0 mi SSW 13.8 mph 31.1 mph N/A Thunderstorm Unknown
2:15 PM 42.8 °F 41.1 °F 39.2 °F 87% 29.78 in 10.0 mi SW 3.5 mph - 0.01 in Rain Light Rain
2:35 PM 44.6 °F 40.7 °F 37.4 °F 76% 29.78 in 10.0 mi SW 6.9 mph - 0.01 in   Overcast
2:55 PM 39.2 °F 29.8 °F 37.4 °F 93% 29.81 in 2.5 mi SW 18.4 mph 28.8 mph 0.03 in Rain , Thunderstorm Light Thunderstorms and Rain
3:15 PM 41.0 °F 33.1 °F 41.0 °F 100% 29.80 in 10.0 mi WSW 15.0 mph - N/A   Light Drizzle
3:35 PM 42.8 °F 36.2 °F 41.0 °F 93% 29.78 in 10.0 mi West 12.7 mph - N/A   Light Drizzle
3:55 PM 42.8 °F 36.2 °F 37.4 °F 81% 29.77 in 10.0 mi West 12.7 mph 17.3 mph N/A   Overcast
4:15 PM 44.6 °F 39.2 °F 37.4 °F 76% 29.75 in 10.0 mi West 10.4 mph 18.4 mph N/A   Overcast
4:35 PM 46.4 °F 42.4 °F 37.4 °F 71% 29.75 in 10.0 mi WSW 8.1 mph - N/A   Overcast
4:55 PM 50.0 °F - 35.6 °F 58% 29.75 in 10.0 mi WSW 5.8 mph - N/A   Overcast
5:15 PM 50.0 °F - 35.6 °F 58% 29.76 in 10.0 mi SSW 5.8 mph - N/A   Overcast
5:35 PM 48.2 °F - 37.4 °F 66% 29.76 in 10.0 mi SSW 6.9 mph - N/A   Overcast
5:55 PM 46.4 °F 42.9 °F 37.4 °F 71% 29.76 in 10.0 mi West 6.9 mph - N/A   Overcast
6:15 PM 46.4 °F 42.4 °F 33.8 °F 62% 29.76 in 10.0 mi West 8.1 mph - N/A Thunderstorm Overcast
6:35 PM 42.8 °F 35.8 °F 35.6 °F 76% 29.79 in 10.0 mi West 13.8 mph 23.0 mph N/A Rain Light Rain
6:55 PM 41.0 °F 35.8 °F 35.6 °F 81% 29.78 in 7.0 mi West 8.1 mph - 0.03 in Rain , Thunderstorm Light Thunderstorms and Rain
7:15 PM 39.2 °F 30.5 °F 37.4 °F 93% 29.79 in 10.0 mi WSW 16.1 mph 20.7 mph N/A   Overcast
7:35 PM 37.4 °F 29.8 °F 35.6 °F 93% 29.77 in 7.0 mi West 11.5 mph 24.2 mph 0.01 in Rain Rain
7:55 PM 37.4 °F 30.8 °F 35.6 °F 93% 29.77 in 10.0 mi West 9.2 mph - 0.01 in   Overcast
8:15 PM 39.2 °F 33.0 °F 37.4 °F 93% 29.77 in 10.0 mi West 9.2 mph - N/A Thunderstorm Thunderstorm
8:35 PM 39.2 °F 33.6 °F 35.6 °F 87% 29.77 in 10.0 mi West 8.1 mph - N/A   Overcast
8:55 PM 41.0 °F 35.2 °F 35.6 °F 81% 29.78 in 10.0 mi WSW 9.2 mph - N/A   Overcast
9:15 PM 39.2 °F 33.6 °F 35.6 °F 87% 29.78 in 10.0 mi West 8.1 mph - N/A   Overcast
9:35 PM 39.2 °F 35.0 °F 35.6 °F 87% 29.77 in 10.0 mi West 5.8 mph - N/A   Overcast
9:55 PM 39.2 °F 37.0 °F 35.6 °F 87% 29.78 in 10.0 mi West 3.5 mph - N/A   Overcast
10:15 PM 39.2 °F 35.9 °F 35.6 °F 87% 29.78 in 10.0 mi WSW 4.6 mph - N/A   Overcast
10:35 PM 39.2 °F 32.0 °F 37.4 °F 93% 29.77 in 10.0 mi WSW 11.5 mph - N/A   Overcast
10:55 PM 37.4 °F 31.4 °F 37.4 °F 100% 29.77 in 10.0 mi West 8.1 mph - N/A   Overcast
11:15 PM 37.4 °F 30.3 °F 37.4 °F 100% 29.77 in 10.0 mi WSW 10.4 mph - N/A   Overcast
11:35 PM 37.4 °F 29.8 °F 37.4 °F 100% 29.76 in 10.0 mi WSW 11.5 mph - N/A   Overcast
11:55 PM 37.4 °F 30.3 °F 37.4 °F 100% 29.76 in 10.0 mi WSW 10.4 mph - N/A   Overcast